KG5APU Weather Reports


Display with metric or nautical units.
time (UTC)temp
F
wind
direction
speed
MPH
gust
MPH
rain 1hr
in
rain 24hr
in
rain mn
in
humidity
%
barometer
mb
20260505153015 77 123 4.0 7.0 0.00 0.00 0.00 79 1005.7
20260505152013 76 160 3.0 5.0 0.00 0.00 0.00 80 1005.8
20260505151011 75 190 10.0 11.0 0.00 0.00 0.00 81 1006.0
20260505124949 71 196 4.0 6.0 0.00 0.00 0.00 86 1005.8
20260505123947 71 165 5.0 6.0 0.00 0.00 0.00 86 1005.6
20260505122946 71 190 4.0 7.0 0.00 0.00 0.00 86 1005.3
20260505121946 71 174 6.0 10.0 0.00 0.00 0.00 86 1005.5
20260505120944 71 202 5.0 8.0 0.00 0.00 0.00 86 1004.9
20260505115940 71 196 7.0 10.0 0.00 0.00 0.00 86 1005.0
20260505114935 71 232 2.0 5.0 0.00 0.00 0.00 86 1005.0
20260505113934 71 188 5.0 6.0 0.00 0.00 0.00 86 1005.0
20260505112932 71 159 8.0 10.0 0.00 0.00 0.00 86 1004.9
20260505111931 71 193 3.0 5.0 0.00 0.00 0.00 86 1005.1
20260505110929 71 157 7.0 9.0 0.00 0.00 0.00 86 1004.8
20260505101926 71 166 4.0 7.0 0.00 0.00 0.00 86 1004.9
20260505100922 71 229 5.0 6.0 0.00 0.00 0.00 86 1004.8
20260505095921 71 179 5.0 7.0 0.00 0.00 0.00 85 1005.0
20260505094920 71 214 10.0 16.0 0.00 0.00 0.00 86 1005.1
20260505093919 71 202 12.0 17.0 0.00 0.00 0.00 86 1005.1
20260505092919 71 208 8.0 11.0 0.00 0.00 0.00 86 1005.3
20260505091914 71 221 8.0 10.0 0.00 0.00 0.00 86 1005.3
20260505090909 71 217 7.0 10.0 0.00 0.00 0.00 86 1005.3
20260505085904 71 166 5.0 8.0 0.00 0.00 0.00 86 1005.0
20260505084900 71 182 5.0 6.0 0.00 0.00 0.00 86 1005.1
20260505083856 71 177 6.0 7.0 0.00 0.00 0.00 86 1005.0
20260505082855 71 163 7.0 10.0 0.00 0.00 0.00 86 1005.0
20260505081854 71 95 7.0 13.0 0.00 0.00 0.00 86 1005.4
20260505080853 71 226 5.0 10.0 0.00 0.00 0.00 85 1005.4
20260505075851 71 180 7.0 9.0 0.00 0.00 0.00 85 1005.4
20260505074845 71 156 5.0 9.0 0.00 0.00 0.00 85 1005.7
20260505073845 71 202 9.0 10.0 0.00 0.00 0.00 84 1005.9
20260505072846 71 238 9.0 13.0 0.00 0.00 0.00 84 1006.1
20260505071844 71 222 3.0 5.0 0.00 0.00 0.00 84 1006.3
20260505070839 72 166 10.0 14.0 0.00 0.00 0.00 83 1006.0
20260505065836 72 214 6.0 10.0 0.00 0.00 0.00 83 1006.2
20260505064836 72 182 5.0 7.0 0.00 0.00 0.00 83 1006.7
20260505063831 72 153 7.0 14.0 0.00 0.00 0.00 82 1006.4
20260505062830 72 218 6.0 8.0 0.00 0.00 0.00 82 1006.4
20260505061829 72 164 6.0 7.0 0.00 0.00 0.00 82 1006.6
20260505060825 72 176 9.0 11.0 0.00 0.00 0.00 82 1006.5
20260505055823 72 138 9.0 11.0 0.00 0.00 0.00 81 1006.5
20260505054823 71 223 5.0 9.0 0.00 0.00 0.00 81 1006.8
20260505053818 72 166 3.0 3.0 0.00 0.00 0.00 80 1007.0
20260505052817 72 171 6.0 9.0 0.00 0.00 0.00 80 1007.0
20260505051816 72 187 5.0 7.0 0.00 0.00 0.00 79 1006.9
20260505050812 72 203 5.0 6.0 0.00 0.00 0.00 79 1007.1
20260505040803 73 172 4.0 5.0 0.00 0.00 0.00 77 1007.4
20260505035803 73 120 5.0 8.0 0.00 0.00 0.00 76 1007.3
20260505034802 73 193 3.0 3.0 0.00 0.00 0.00 76 1007.2
20260505033802 73 178 2.0 2.0 0.00 0.00 0.00 75 1007.0
20260505032757 74 99 5.0 7.0 0.00 0.00 0.00 75 1007.4
20260505031756 74 151 5.0 6.0 0.00 0.00 0.00 75 1007.3
20260505030756 74 194 3.0 3.0 0.00 0.00 0.00 75 1007.5
20260505025753 74 202 7.0 10.0 0.00 0.00 0.00 74 1007.4
20260505024749 74 160 1.0 2.0 0.00 0.00 0.00 74 1007.4
20260505023749 74 185 4.0 5.0 0.00 0.00 0.00 73 1007.4
20260505022749 74 189 4.0 5.0 0.00 0.00 0.00 73 1007.2
20260505021749 74 169 5.0 7.0 0.00 0.00 0.00 73 1007.2
20260505020747 75 185 6.0 8.0 0.00 0.00 0.00 72 1007.2
20260505015746 75 145 7.0 9.0 0.00 0.00 0.00 72 1007.3
20260505014746 75 120 5.0 7.0 0.00 0.00 0.00 71 1007.0
20260505013745 75 153 6.0 9.0 0.00 0.00 0.00 71 1007.2
20260505012740 75 189 3.0 3.0 0.00 0.00 0.00 70 1007.2
20260505011739 75 206 7.0 9.0 0.00 0.00 0.00 70 1007.0
20260505010738 75 192 5.0 6.0 0.00 0.00 0.00 69 1007.1
20260505005737 76 145 4.0 6.0 0.00 0.00 0.00 68 1007.0
20260505004737 76 155 6.0 8.0 0.00 0.00 0.00 67 1007.0
20260505003736 77 188 11.0 15.0 0.00 0.00 0.00 66 1007.3
20260505002736 77 91 6.0 9.0 0.00 0.00 0.00 65 1007.2
20260505001737 78 133 6.0 11.0 0.00 0.00 0.00 65 1007.4
20260505000737 78 198 9.0 11.0 0.00 0.00 0.00 63 1007.4
20260504235736 78 201 4.0 5.0 0.00 0.00 0.00 63 1007.1
20260504234736 78 196 9.0 15.0 0.00 0.00 0.00 63 1007.4
20260504233735 78 208 7.0 11.0 0.00 0.00 0.00 63 1007.2
20260504232734 78 106 8.0 10.0 0.00 0.00 0.00 62 1007.5
20260504231734 79 174 8.0 10.0 0.00 0.00 0.00 62 1007.5
20260504230732 80 138 7.0 9.0 0.00 0.00 0.00 61 1007.6
20260504225729 80 171 9.0 11.0 0.00 0.00 0.00 61 1007.8
20260504224728 80 186 8.0 11.0 0.00 0.00 0.00 60 1007.9
20260504223727 80 207 7.0 9.0 0.00 0.00 0.00 60 1007.7
20260504222726 81 176 7.0 10.0 0.00 0.00 0.00 59 1007.8
20260504221726 81 165 8.0 10.0 0.00 0.00 0.00 59 1007.9
20260504220725 81 193 6.0 8.0 0.00 0.00 0.00 59 1008.1
20260504215720 81 184 8.0 11.0 0.00 0.00 0.00 57 1008.3
20260504214718 80 158 3.0 5.0 0.00 0.00 0.00 59 1008.3
20260504213718 80 150 4.0 6.0 0.00 0.00 0.00 58 1008.5
20260504212717 81 177 5.0 7.0 0.00 0.00 0.00 56 1008.7
20260504211717 81 200 3.0 5.0 0.00 0.00 0.00 58 1008.9
20260504210716 81 156 5.0 7.0 0.00 0.00 0.00 56 1008.9
20260504205716 81 201 7.0 10.0 0.00 0.00 0.00 56 1009.2
20260504204712 81 157 9.0 11.0 0.00 0.00 0.00 53 1009.3
20260504203709 81 176 7.0 9.0 0.00 0.00 0.00 55 1009.5
20260504202706 81 137 9.0 17.0 0.00 0.00 0.00 54 1009.8
20260504201700 81 180 5.0 7.0 0.00 0.00 0.00 54 1010.1
20260504200655 81 159 7.0 8.0 0.00 0.00 0.00 54 1010.1
20260504195653 81 173 8.0 10.0 0.00 0.00 0.00 54 1010.4
20260504194652 80 121 7.0 9.0 0.00 0.00 0.00 54 1010.5
20260504193650 80 177 7.0 9.0 0.00 0.00 0.00 54 1010.4
20260504192646 80 136 7.0 9.0 0.00 0.00 0.00 53 1010.6
20260504191642 80 234 7.0 11.0 0.00 0.00 0.00 54 1011.2
20260504190640 80 145 7.0 10.0 0.00 0.00 0.00 53 1011.1
20260504185639 79 108 9.0 11.0 0.00 0.00 0.00 51 1011.1
20260504184638 78 185 7.0 11.0 0.00 0.00 0.00 51 1011.2
20260504183636 78 169 4.0 6.0 0.00 0.00 0.00 52 1011.1
20260504182631 78 214 9.0 13.0 0.00 0.00 0.00 51 1011.6
20260504181631 78 168 3.0 8.0 0.00 0.00 0.00 53 1012.1
20260504180628 78 104 3.0 7.0 0.00 0.00 0.00 54 1012.0
20260504175623 78 201 7.0 9.0 0.00 0.00 0.00 53 1012.0
20260504174618 77 121 4.0 6.0 0.00 0.00 0.00 55 1012.3
20260504173617 76 154 5.0 7.0 0.00 0.00 0.00 55 1012.4
20260504172616 75 166 5.0 8.0 0.00 0.00 0.00 56 1012.9
20260504171615 75 184 11.0 14.0 0.00 0.00 0.00 54 1013.0
20260504170614 75 207 10.0 14.0 0.00 0.00 0.00 55 1013.1